Temperature
19 19 19 19 18 18 18 18 18 18 18 18 17 17 17 17 17 17 17 16 16 16 16 16 16 15 15 15 15 15 16 16 16 16 16 17 16 16 16 16 16 16 16
20 19 19 18 18 18 18 18 18 18 18 18 17 17 17 17 17 17 17 16 16 16 16 16 15 15 15 15 15 15 15 16 16 16 16 17 16 17 17 16 16 16 16
20 19 19 18 18 18 18 18 18 18 18 17 17 17 17 17 17 17 16 16 16 15 15 15 15 15 15 15 15 15 15 15 16 16 16 16 17 16 16 16 16 16 16
20 19 19 18 18 18 18 18 18 18 17 17 17 17 17 17 17 17 16 16 16 15 15 15 15 15 15 15 15 15 15 15 15 16 16 16 16 16 16 16 16 16 16
20 19 19 19 18 18 18 18 18 18 17 17 17 17 17 17 17 17 16 16 16 16 15 15 15 15 15 15 15 15 15 15 15 15 16 16 16 16 17 16 16 16 16
21 20 19 19 18 18 18 18 18 17 17 17 17 17 17 17 17 17 17 16 16 16 15 15 15 15 15 15 15 15 15 15 15 15 15 15 16 16 16 16 16 16 16
21 20 19 19 19 18 18 18 18 18 18 18 17 17 17 17 17 17 17 17 16 16 16 16 16 15 15 15 14 15 14 14 15 15 15 15 15 15 15 16 16 16 16
22 21 20 19 19 18 18 18 18 18 18 18 18 18 17 17 17 17 17 17 17 17 16 16 16 15 15 15 15 14 14 15 15 15 15 15 15 15 15 15 15 15 16
22 21 21 20 19 19 19 18 18 18 18 18 18 18 18 18 17 17 17 17 17 17 17 16 16 16 16 15 15 15 14 14 15 14 14 15 15 14 14 14 14 14 15
23 22 21 20 20 19 19 19 18 18 18 18 18 18 18 18 18 17 17 17 17 17 17 17 16 16 16 16 15 15 15 15 15 15 14 14 14 14 14 14 14 14 14
24 23 22 21 21 20 19 19 18 18 18 18 18 18 18 18 18 18 18 17 17 17 17 17 17 17 16 16 16 16 15 15 15 15 15 15 15 15 14 14 14 14 14
24 24 23 22 21 21 20 19 19 18 18 18 18 18 18 18 18 18 18 18 18 18 17 17 17 17 17 16 16 16 16 15 15 15 15 15 15 15 15 15 14 14 14
25 24 23 22 22 21 21 20 19 19 19 18 18 18 18 18 18 18 18 18 18 18 17 17 17 17 17 17 17 16 16 16 16 16 16 15 15 15 15 15 15 14 14
24 24 23 22 22 21 21 21 20 19 19 19 19 19 19 18 18 18 18 18 18 18 18 17 17 17 17 17 17 17 17 17 16 16 16 16 15 15 15 15 15 15 14
23 23 22 22 21 21 21 21 20 20 20 19 19 19 19 18 18 18 18 18 17 17 17 17 17 17 17 17 17 17 16 16 16 16 16 16 16 15 15 15 15 14 14
23 22 22 22 21 21 21 21 20 20 20 20 19 19 19 18 18 18 18 17 17 17 17 17 17 17 17 16 16 16 16 16 16 15 15 15 15 15 15 15 15 14 14
21 21 21 21 21 20 20 20 20 20 20 20 19 19 19 18 18 17 17 17 17 17 16 16 16 16 16 16 16 16 15 15 15 15 15 15 14 14 14 14 14 14 14
19 19 19 19 19 19 19 19 19 19 19 19 18 18 18 17 17 17 17 16 16 16 16 16 16 15 15 15 15 15 15 15 15 14 14 14 14 14 14 13 13 14 14
18 18 18 18 18 18 18 18 18 18 18 17 17 17 16 16 16 16 16 16 15 15 15 15 15 15 15 15 14 14 14 14 14 14 13 13 13 13 13 13 13 13 13
16 16 16 17 17 17 17 17 16 16 16 16 15 15 15 15 15 15 15 15 14 14 14 14 14 14 14 14 13 13 13 13 13 13 13 13 12 12 12 12 12 12 13
15 15 16 15 15 15 16 16 15 15 14 14 14 14 14 14 14 14 14 14 13 13 13 13 13 13 13 13 13 13 12 12 12 12 12 12 12 12 12 12 12 12 12
15 15 15 14 14 14 14 14 14 13 13 13 13 13 13 13 13 13 13 13 13 13 13 13 13 13 12 12 12 12 11 11 11 11 10 10 11 11 11 11 11 11 11
14 14 14 13 13 13 13 13 12 12 12 12 12 12 12 12 12 12 12 12 12 12 12 12 12 11 11 11 11 10 10 10 9 9 9 9 10 10 10 10 10 10 10
14 13 13 13 12 12 12 12 12 12 12 11 11 12 12 12 11 11 11 11 11 11 11 11 10 10 10 10 10 9 9 9 9 8 8 9 9 9 9 9 9 10 10
13 13 13 12 12 11 11 11 11 11 11 11 11 11 11 11 11 11 11 11 11 10 10 10 9 9 8 8 8 8 8 8 7 7 7 8 8 8 8 8 8 9 9
13 13 12 12 12 11 11 11 11 11 11 11 11 11 11 11 11 11 11 11 10 10 10 9 9 9 8 8 8 7 7 7 7 6 7 7 7 7 7 7 8 8 8
Wind_Speed
11 10 10 10 11 10 9 9 10 9 8 6 6 5 5 4 4 6 7 5 4 3 3 3 1 1 4 4 3 2 1 2 1 2 1 2 2 2 2 1 1 2 2
11 11 10 10 11 11 11 10 11 10 9 7 5 5 5 4 4 5 6 6 5 3 3 2 1 3 3 3 3 2 3 1 2 1 2 2 2 1 3 3 2 2 2
13 12 12 12 12 12 12 11 11 11 9 9 6 5 4 3 4 6 5 4 5 3 4 2 3 1 1 4 1 2 2 3 1 2 2 3 2 2 2 2 4 2 1
13 13 13 13 13 13 12 11 11 11 10 9 8 8 6 5 6 5 5 5 5 5 5 3 2 2 2 3 1 3 2 2 2 1 2 1 1 2 1 2 4 4 2
13 13 13 12 13 13 12 11 11 11 10 9 9 8 6 5 5 6 7 6 5 5 6 5 4 1 1 3 4 3 3 3 4 3 1 1 1 3 1 1 2 2 3
13 13 13 12 12 12 13 13 12 11 11 10 9 8 7 5 5 6 7 6 5 5 6 6 5 3 2 3 2 1 1 1 4 4 4 2 2 2 2 1 1 1 2
13 13 14 14 13 13 13 13 13 12 12 11 10 9 7 6 5 5 7 6 5 6 7 6 5 4 3 3 3 3 1 1 0 2 4 4 3 3 3 3 3 3 1
14 14 15 14 13 13 13 14 14 13 12 11 9 9 8 6 6 7 5 6 4 5 9 7 6 5 5 5 4 4 4 3 2 3 2 3 4 2 2 2 3 4 3
15 15 15 15 14 13 13 13 14 12 12 11 10 9 9 8 7 7 7 5 4 5 9 8 7 7 6 5 5 4 4 4 4 4 5 4 4 3 3 2 2 2 4
14 15 15 15 15 14 12 12 13 12 12 12 11 11 10 9 7 6 7 5 5 4 7 8 8 8 7 6 6 5 6 5 5 4 4 3 4 4 3 3 3 3 3
14 14 13 14 14 15 14 12 13 12 12 12 11 10 10 10 9 7 7 6 6 6 6 7 8 8 8 8 7 7 6 7 7 6 6 6 6 4 4 3 3 4 4
12 13 13 13 13 14 15 14 13 14 13 12 11 10 9 9 9 10 9 8 8 7 8 8 8 9 9 9 9 9 9 8 8 8 7 7 7 8 6 5 6 5 5
10 11 12 12 12 12 13 14 14 14 14 13 12 11 11 10 10 9 9 9 9 8 9 9 9 9 9 9 9 9 9 9 8 8 9 8 8 8 7 7 7 6 7
8 9 9 9 9 9 9 10 11 11 12 12 12 11 11 10 10 9 9 9 9 9 9 9 9 10 10 9 9 10 10 10 9 9 9 9 9 9 9 9 9 8 7
8 8 8 7 6 7 7 8 8 8 8 8 8 9 9 8 8 8 8 8 9 10 9 9 9 9 10 11 11 10 11 10 10 10 10 11 12 13 11 11 9 9 9
7 7 8 8 7 6 6 6 6 6 6 7 6 5 5 4 4 5 5 6 7 7 8 9 9 10 11 12 14 11 9 9 10 10 10 11 13 15 17 18 16 13 11
9 9 8 8 6 6 5 5 4 4 4 4 3 2 3 3 2 2 2 2 3 4 4 5 6 7 8 9 10 12 9 9 9 9 9 12 14 13 13 15 19 19 20
11 11 11 11 10 10 9 8 8 8 8 7 6 6 5 4 3 3 3 2 1 2 3 4 5 5 7 6 7 8 8 9 10 10 10 10 11 13 11 11 13 14 15
12 12 12 13 12 12 11 11 11 10 10 9 8 8 6 5 5 5 4 3 2 2 3 4 4 4 4 3 4 5 5 7 9 10 11 11 12 14 14 13 13 13 13
14 14 14 14 14 12 12 13 13 12 11 10 9 8 7 7 7 6 5 4 3 3 4 4 4 4 3 2 3 4 4 6 7 8 9 12 11 11 10 10 12 14 14
14 14 14 13 12 11 12 13 12 11 10 9 9 8 7 6 6 6 5 5 5 5 5 5 4 4 3 2 2 4 3 5 6 7 7 6 6 8 10 10 11 15 14
14 14 13 12 10 10 11 12 10 9 8 8 8 7 7 7 6 5 4 4 4 5 5 4 5 4 3 1 0 1 3 6 7 8 8 8 12 14 14 13 15 18 15
12 12 12 12 10 10 10 10 8 7 7 7 6 5 4 4 3 4 4 4 3 3 5 5 6 6 5 4 5 4 7 9 7 9 12 15 17 17 15 17 19 15 12
11 11 11 11 10 9 8 8 7 6 6 5 4 3 2 2 3 3 4 4 5 5 5 6 6 6 6 5 6 7 8 10 10 10 13 16 19 18 17 16 15 12 12
11 10 9 9 9 7 6 7 6 5 5 4 4 4 4 3 3 3 3 3 2 1 2 4 5 6 6 5 6 7 8 9 10 11 12 12 12 12 11 10 10 10 10
10 9 9 8 7 6 6 6 6 6 6 6 7 7 6 5 5 5 5 4 4 4 5 5 5 4 4 7 9 11 13 15 14 11 12 12 12 12 12 12 11 10 10
Wind_Direction
165 161 163 158 152 149 149 152 149 151 148 147 150 142 150 160 138 131 133 131 111 92 10 77 120 31 72 54 48 33 278 240 10 311 241 186 166 144 124 75 51 93 103
165 167 166 166 163 162 163 163 159 159 159 158 155 154 154 167 141 119 135 145 142 162 144 76 135 78 100 73 45 42 339 316 106 313 295 192 153 229 145 138 137 76 45
172 174 175 173 171 172 174 173 167 165 166 163 161 154 146 155 133 138 158 164 159 131 65 75 58 19 160 112 59 17 351 349 3 50 358 351 47 165 139 146 112 114 42
174 177 181 179 178 178 176 169 169 168 167 168 165 164 173 180 167 166 157 166 172 165 157 139 101 349 60 119 195 96 350 325 313 136 126 107 26 337 129 193 148 166 162
176 180 184 183 180 177 176 170 168 168 167 173 171 178 184 186 168 157 152 169 173 184 177 164 159 199 89 95 66 70 2 343 347 348 7 67 234 259 272 161 163 197 174
173 176 179 178 176 174 173 170 167 169 170 178 176 188 195 190 169 165 161 184 175 187 184 179 176 200 167 137 131 135 193 26 15 352 344 342 334 331 333 334 258 214 166
169 173 175 175 175 175 174 169 169 172 174 181 183 188 199 194 187 189 181 200 189 184 181 182 176 198 175 175 172 190 255 199 38 312 315 339 343 357 353 345 330 339 282
171 174 174 174 177 180 175 168 170 173 177 184 185 187 196 200 202 209 208 206 220 183 166 171 176 196 195 199 181 216 204 190 212 255 290 317 305 334 330 327 336 323 302
170 173 172 175 178 179 174 171 169 173 180 185 184 188 198 213 213 195 211 213 209 180 160 172 181 190 199 211 188 224 232 182 202 232 217 228 271 255 267 284 288 295 308
169 172 175 177 177 178 175 174 171 177 182 186 188 193 201 208 211 216 216 216 204 196 163 176 186 193 194 198 213 228 219 216 220 236 261 244 273 282 256 249 258 260 270
169 169 172 176 177 176 175 177 176 180 187 191 193 200 195 201 205 215 218 215 212 199 188 189 193 197 200 199 204 227 229 213 220 229 230 225 237 267 289 272 249 243 243
163 166 169 172 179 181 180 181 182 185 190 192 193 198 201 201 204 210 213 210 210 207 201 200 203 207 207 205 205 216 231 227 223 226 232 233 233 222 235 257 266 257 247
155 160 164 170 179 180 179 181 186 192 193 192 195 197 204 207 210 212 209 208 208 211 211 205 208 213 216 210 210 215 225 232 232 229 229 230 234 236 232 231 243 252 255
140 147 149 156 161 163 167 173 181 190 194 192 193 199 205 209 212 213 213 212 210 210 215 213 212 213 217 219 216 217 221 228 234 235 235 234 231 233 233 239 237 242 253
134 132 134 139 146 151 156 163 169 174 179 181 189 199 206 208 212 214 216 215 215 219 216 217 219 219 221 224 220 220 225 224 230 235 236 240 239 237 237 242 239 236 237
109 113 120 134 143 147 152 153 158 165 164 168 176 179 183 191 209 219 220 220 221 225 221 219 223 226 232 231 222 220 233 232 232 236 238 242 243 242 238 240 243 244 246
85 82 88 88 96 108 114 118 125 127 123 124 124 138 153 163 190 214 211 229 232 232 239 239 236 238 243 246 231 225 233 244 248 248 247 253 255 246 240 237 237 242 243
85 79 79 78 76 77 79 78 78 74 74 71 69 57 58 60 52 52 52 26 337 276 262 261 260 262 265 259 244 238 240 254 258 259 258 258 261 263 261 258 250 240 241
84 80 78 78 73 72 75 76 70 68 66 60 54 49 45 47 52 40 25 20 358 325 301 285 281 276 281 275 251 238 256 261 264 265 266 264 263 262 262 263 264 261 255
85 83 80 78 73 70 73 76 71 64 59 57 56 54 49 42 46 40 25 9 347 329 318 314 307 296 281 277 254 231 262 276 281 280 274 270 272 281 281 272 269 267 265
91 86 82 77 72 71 74 75 71 67 63 59 55 48 42 42 47 37 18 358 343 326 306 301 300 295 276 243 223 216 254 288 296 297 298 298 328 322 311 298 281 274 277
97 93 88 82 76 72 73 74 67 62 61 57 52 46 34 28 31 17 359 340 325 314 308 304 306 308 322 20 42 214 266 302 309 303 301 306 318 314 304 293 276 273 275
100 98 95 89 79 73 73 73 66 58 53 51 45 36 26 13 6 348 335 321 318 327 338 345 344 342 352 13 17 360 329 315 303 297 303 310 307 303 295 280 273 272 270
104 99 93 89 83 75 72 74 69 57 47 38 25 1 346 353 357 337 335 343 355 357 357 347 338 335 337 5 9 354 337 324 313 313 314 309 294 284 274 275 276 267 261
98 95 93 91 86 80 71 64 56 41 26 10 352 340 346 1 341 323 321 325 336 330 300 317 321 324 327 347 342 332 324 320 312 313 304 296 292 289 286 283 279 276 274
101 97 93 89 85 78 71 59 45 29 9 0 354 344 344 353 342 334 329 307 287 249 238 247 273 316 330 322 321 313 303 296 296 303 297 295 294 294 296 297 295 291 286
Height
1500 1503 1506 1509 1513 1516 1520 1524 1527 1532 1535 1538 1541 1544 1547 1550 1551 1552 1553 1554 1555 1555 1556 1556 1557 1557 1558 1558 1559 1560 1561 1563 1563 1564 1565 1565 1566 1567 1567 1568 1568 1569 1570
1499 1502 1505 1508 1511 1515 1519 1523 1527 1530 1534 1537 1540 1543 1547 1549 1551 1552 1553 1554 1554 1555 1556 1556 1557 1557 1557 1558 1558 1559 1561 1562 1563 1564 1564 1565 1567 1566 1567 1568 1568 1569 1569
1497 1500 1503 1507 1510 1514 1517 1521 1525 1529 1532 1536 1540 1543 1546 1548 1550 1551 1552 1553 1554 1555 1555 1556 1556 1557 1558 1558 1558 1559 1560 1562 1563 1563 1564 1564 1565 1566 1567 1568 1568 1568 1569
1495 1498 1501 1505 1508 1512 1516 1519 1523 1527 1531 1534 1538 1541 1544 1547 1549 1550 1552 1553 1554 1554 1555 1555 1555 1556 1557 1557 1558 1558 1560 1561 1562 1563 1564 1564 1565 1566 1567 1568 1568 1568 1568
1492 1496 1499 1502 1506 1510 1514 1517 1521 1525 1529 1533 1536 1540 1544 1546 1548 1550 1551 1552 1553 1554 1554 1555 1555 1556 1556 1557 1557 1558 1559 1560 1561 1562 1563 1564 1565 1565 1567 1567 1567 1567 1567
1490 1494 1498 1501 1505 1508 1512 1516 1519 1523 1527 1531 1535 1539 1542 1545 1547 1549 1550 1551 1552 1553 1553 1554 1554 1555 1556 1556 1556 1557 1558 1559 1560 1561 1562 1563 1564 1565 1565 1566 1566 1566 1566
1489 1493 1497 1500 1503 1507 1511 1514 1518 1522 1526 1529 1533 1537 1541 1543 1545 1547 1549 1550 1551 1551 1552 1553 1553 1554 1554 1555 1556 1556 1557 1558 1558 1560 1561 1562 1563 1563 1564 1564 1565 1565 1565
1488 1491 1495 1499 1502 1506 1509 1512 1516 1520 1524 1528 1531 1535 1539 1541 1544 1546 1548 1549 1550 1551 1551 1552 1552 1552 1553 1554 1554 1556 1556 1556 1557 1558 1559 1560 1561 1562 1563 1563 1563 1563 1563
1486 1490 1494 1498 1501 1505 1508 1511 1514 1518 1522 1526 1530 1533 1537 1540 1542 1544 1546 1547 1549 1549 1549 1550 1550 1550 1551 1552 1553 1554 1555 1556 1556 1557 1558 1558 1559 1560 1561 1561 1562 1563 1562
1484 1488 1493 1496 1500 1504 1507 1511 1513 1517 1520 1524 1528 1531 1534 1537 1540 1542 1544 1545 1546 1547 1547 1547 1548 1548 1549 1550 1551 1552 1553 1553 1554 1555 1555 1556 1557 1558 1558 1559 1559 1560 1560
1482 1486 1491 1495 1499 1503 1506 1509 1512 1515 1518 1522 1525 1529 1532 1534 1537 1539 1540 1542 1543 1544 1545 1545 1546 1546 1547 1548 1548 1549 1551 1551 1551 1552 1553 1553 1554 1554 1555 1555 1556 1556 1557
1480 1484 1489 1493 1497 1501 1504 1507 1510 1513 1516 1519 1523 1526 1529 1531 1533 1535 1537 1538 1539 1540 1541 1542 1543 1543 1544 1545 1546 1546 1547 1548 1549 1549 1550 1550 1551 1551 1551 1551 1551 1552 1552
1479 1483 1487 1491 1495 1499 1502 1505 1508 1511 1514 1517 1520 1522 1525 1528 1530 1532 1533 1535 1536 1537 1537 1538 1539 1540 1541 1542 1542 1543 1544 1544 1545 1546 1546 1546 1547 1547 1547 1547 1547 1547 1547
1479 1482 1485 1489 1493 1496 1500 1503 1506 1509 1512 1514 1517 1519 1521 1524 1526 1528 1530 1531 1532 1533 1533 1534 1535 1536 1537 1538 1539 1539 1540 1540 1541 1541 1542 1542 1542 1542 1542 1542 1542 1542 1542
1479 1481 1485 1488 1491 1494 1497 1500 1504 1507 1509 1512 1513 1515 1518 1520 1522 1524 1525 1527 1528 1529 1529 1530 1531 1532 1532 1533 1534 1534 1535 1535 1536 1536 1536 1537 1537 1537 1537 1537 1537 1537 1536
1480 1482 1484 1487 1490 1493 1496 1498 1501 1505 1507 1508 1510 1512 1514 1516 1518 1520 1521 1522 1523 1524 1525 1525 1526 1527 1528 1529 1529 1530 1530 1530 1530 1530 1530 1531 1531 1531 1531 1530 1531 1531 1530
1481 1483 1485 1487 1489 1492 1494 1497 1500 1503 1505 1506 1508 1509 1510 1512 1514 1515 1516 1518 1518 1519 1520 1521 1521 1522 1523 1524 1524 1524 1525 1525 1524 1524 1524 1524 1524 1524 1524 1523 1523 1523 1522
1483 1485 1486 1488 1490 1492 1494 1496 1498 1500 1502 1503 1504 1506 1507 1508 1510 1511 1512 1514 1514 1515 1516 1517 1517 1517 1518 1518 1519 1519 1518 1518 1518 1518 1517 1517 1517 1517 1517 1516 1514 1513 1513
1485 1487 1488 1489 1491 1492 1494 1495 1497 1499 1501 1502 1503 1504 1506 1507 1507 1509 1509 1510 1511 1511 1512 1512 1513 1513 1513 1513 1513 1512 1512 1511 1510 1510 1510 1509 1508 1508 1508 1507 1505 1504 1503
1487 1489 1491 1492 1493 1495 1496 1497 1498 1500 1501 1502 1503 1504 1505 1506 1506 1507 1507 1508 1509 1509 1509 1509 1509 1508 1508 1507 1507 1507 1506 1504 1504 1503 1503 1502 1501 1500 1499 1498 1496 1494 1493
1490 1492 1493 1495 1496 1498 1499 1499 1501 1502 1504 1505 1505 1505 1505 1506 1506 1506 1506 1507 1507 1507 1507 1506 1506 1505 1504 1503 1502 1501 1500 1499 1497 1496 1495 1495 1493 1491 1490 1488 1486 1484 1484
1494 1495 1496 1498 1499 1501 1501 1502 1503 1505 1506 1506 1506 1506 1506 1506 1506 1506 1506 1505 1505 1505 1505 1504 1503 1502 1502 1499 1497 1496 1495 1493 1491 1489 1488 1487 1485 1483 1481 1479 1477 1476 1474
1497 1499 1499 1501 1503 1504 1504 1505 1506 1507 1508 1508 1507 1507 1506 1506 1506 1505 1505 1504 1504 1503 1503 1502 1500 1499 1498 1496 1493 1491 1490 1488 1486 1483 1481 1479 1476 1474 1471 1470 1468 1466 1464
1499 1501 1503 1504 1505 1507 1507 1508 1508 1509 1509 1508 1508 1508 1507 1507 1506 1505 1505 1504 1503 1502 1500 1499 1497 1495 1494 1492 1489 1487 1484 1482 1479 1476 1473 1470 1468 1465 1463 1460 1458 1456 1454
1502 1504 1505 1507 1508 1509 1510 1510 1510 1510 1510 1510 1510 1509 1509 1508 1506 1505 1504 1503 1501 1500 1498 1496 1494 1492 1490 1488 1485 1482 1479 1476 1473 1469 1465 1462 1459 1456 1454 1452 1450 1448 1446
1504 1506 1508 1509 1510 1511 1512 1512 1512 1512 1511 1511 1511 1510 1509 1507 1506 1504 1503 1501 1500 1497 1495 1493 1491 1488 1486 1483 1480 1477 1474 1471 1467 1463 1459 1455 1453 1450 1447 1445 1442 1440 1438